Location: Bailleul
(50.3375°N, 2.8513°E)
Time: 16:30:24
(UTC+00:00)

Cosmos 1408 Rocket - Pass Details

Date: 19 April 2021
Orbit: 600 x 631 km, 82.6° (Epoch: 06 May)

Event Time Altitude Azimuth Distance (km) Brightness Sun altitude
Rises 22:16:05 0° 344° (NNW) 2,864 8.3 -25.0°
Reaches altitude 10° 22:18:23 10° 337° (NNW) 1,958 7.2 -25.2°
Maximum altitude 22:22:26 41° 268° (W) 885 4.4 -25.4°
Enters shadow 22:22:33 41° 263° (W) 887 4.4 -25.4°
